Location: Dirschhofen
(48.6261°N, 11.2420°E)
Time: 12:10:51
(UTC+00:00)

Daily predictions for brighter satellites

Satellite Brightness Start Highest point End
(mag) Time Altitude Azimuth Time Altitude Azimuth Time Altitude Azimuth
NOSS 2-1 (E) 3.5 17:58:56 10° NW 18:02:39 74° NE 18:07:46 10° SE
Cosmos 1328 Rocket 3.8 17:59:39 10° N 18:03:50 48° ENE 18:08:00 10° SSE
Cosmos 1356 Rocket 4.2 18:02:46 10° N 18:06:34 32° ENE 18:10:18 10° SE
Cosmos 1674 2.5 18:03:52 10° N 18:07:09 52° ENE 18:10:23 10° SSE
Lacrosse 4 Rocket 2.2 18:03:30 10° NW 18:07:47 57° WSW 18:11:59 10° SSE
NOSS 2-1 (D) 3.5 18:06:36 10° NW 18:10:20 88° NE 18:15:27 10° SE
BREEZE-M DEB (TANK) 3.2 18:08:08 10° W 18:10:36 78° N 18:15:40 10° E
Meteor 1-18 Rocket 4.5 18:05:06 10° NNW 18:11:03 84° W 18:16:54 10° S
SJ-6B 2.6 18:07:52 10° SSE 18:11:26 59° ENE 18:14:59 10° N
SeaSat 1 3.3 18:08:51 10° NNE 18:13:40 56° NW 18:18:27 10° SW
Cosmos 2333 Rocket 3.7 18:08:34 10° WSW 18:14:00 42° NW 18:19:30 10° NNE
Iridium 4 Rocket 2.9 18:10:04 10° N 18:14:15 73° E 18:18:24 10° S
CARTOSAT-1 4.3 18:10:42 10° SE 18:14:31 34° ENE 18:18:22 10° N
Meteor 1-4 Rocket 2.2 18:12:05 10° N 18:14:38 41° ENE 18:17:11 10° SSE
Cosmos 1151 Rocket 4.0 18:10:55 10° NNW 18:15:03 51° W 18:19:09 10° S
Cosmos 1340 3.0 18:12:21 10° SSW 18:15:35 59° WNW 18:18:48 10° N
ATLAS CENTAUR R/B 2.7 18:13:34 10° SSE 18:15:38 15° ESE 18:17:46 10° ENE
Cosmos 2369 Rocket 4.2 18:15:55 10° N 18:19:08 15° NNE 18:22:21 10° ENE
Cosmos 1980 4.3 18:16:09 10° SSE 18:21:08 33° ESE 18:26:08 10° NE
ARGOS Delta rocket 4.0 18:16:24 10° SSE 18:21:21 60° ENE 18:26:04 10° N
Cosmos 1733 4.1 18:22:02 10° SE 18:24:49 23° E 18:27:35 10° NE
NOSS 0 Rocket 4.1 18:21:15 10° S 18:27:13 50° ESE 18:33:13 10° NE
Cosmos 1943 Rocket 2.5 18:22:15 10° NNW 18:27:36 48° NE 18:32:34 12° SE
USA 276 1.8 18:25:37 10° WNW 18:28:31 75° SSW 18:30:24 18° ESE
Nadezhda 4 Rocket 4.4 18:24:21 10° N 18:30:18 43° ENE 18:36:16 10° SE
ACS3 Solar Sail 2.5 18:24:50 10° SE 18:30:38 38° ENE 18:36:28 10° N
Cosmos 1400 Rocket 3.2 18:27:33 10° NNW 18:31:22 63° W 18:35:05 10° S
Cosmos 2322 3.8 18:26:50 10° SSW 18:32:29 82° WNW 18:38:11 10° NNE
CSL-04 Debris 4.4 18:27:15 10° SE 18:32:32 51° ENE 18:37:49 10° N
Sich 1 4.4 18:30:57 14° ESE 18:32:49 18° E 18:35:47 10° NE
Cosmos 2233 Rocket 4.5 18:27:25 10° SSW 18:33:29 65° WNW 18:39:39 10° N
BlueWalker 3 3.1 18:31:05 10° WNW 18:34:32 35° SW 18:37:58 10° SSE
Cosmos 1726 3.1 18:33:31 10° SSW 18:36:08 36° WNW 18:38:45 10° N
Resurs 1-3 4.1 18:32:06 10° S 18:36:22 62° WSW 18:40:42 10° NNW
Terra 3.8 18:35:11 11° ENE 18:36:52 13° NE 18:38:55 10° NNE
Cosmos 1513 Rocket 4.4 18:35:33 10° S 18:41:31 66° E 18:47:34 10° NNE
Cosmos 1315 Rocket 3.4 18:43:30 10° N 18:47:12 36° ENE 18:49:14 21° SE
Cosmos 1805 4.4 18:47:20 20° E 18:47:20 20° E 18:50:05 10° NE
Meteor PRIRODA 4.5 18:45:59 10° S 18:49:09 45° W 18:52:21 10° NNW
Cosmos 1464 Rocket 4.1 18:43:15 10° S 18:49:25 59° E 18:55:40 10° NNE
Cosmos 1125 Rocket 3.5 18:46:07 10° NNW 18:51:18 66° ENE 18:55:24 16° SE
Cosmos 1842 3.4 18:48:43 10° NNW 18:52:19 67° W 18:55:54 10° S
SL-16 R/B 3.7 18:53:32 16° E 18:53:32 16° E 18:55:52 10° ENE
Cosmos 1536 2.6 18:50:26 10° S 18:54:11 65° E 18:58:00 10° NNE
USA 59 Rocket 1.1 18:50:47 10° NW 18:54:34 44° SW 18:59:42 10° SSE
Okean 3 Rocket 3.5 18:50:12 10° S 18:54:39 71° E 18:59:05 10° NNE
Cosmos 1707 2.7 18:52:36 10° NNW 18:56:09 73° W 18:59:41 10° S
COSMOS 2428 3.1 18:50:39 10° SW 18:56:20 68° WNW 19:02:05 10° NNE
Cosmos 1515 Rocket 3.4 18:52:05 10° N 18:56:26 79° E 19:00:44 10° SSE
Okean O Rocket 1.7 18:57:42 20° SE 19:00:38 56° ENE 19:04:59 10° N
Feng Yun 1-1 Rocket 4.3 18:55:49 10° SSE 19:01:37 84° ENE 19:07:33 10° NNW
SL-14 R/B 4.0 19:01:33 10° N 19:04:57 30° ENE 19:05:27 29° E
Cosmos 2278 Rocket 2.6 19:01:41 10° NNW 19:07:19 64° WSW 19:12:39 11° SSE
USA 306 3.2 19:05:56 10° W 19:09:04 48° NNW 19:11:32 18° NE
CZ-4 R/B 2.5 19:06:05 10° S 19:09:42 42° W 19:13:26 10° NNW
Meteor 1-13 Rocket 4.2 19:03:50 10° N 19:09:46 82° ENE 19:14:59 13° SSE
Meteor 2-9 Rocket 4.1 19:05:24 10° S 19:10:37 58° E 19:15:58 10° NNE
PSLV R/B 3.9 19:09:57 38° ESE 19:10:42 45° ENE 19:14:04 10° N
Cosmos 2034 Rocket 4.0 19:05:38 10° S 19:11:40 58° E 19:17:43 10° NNE
CZ-4B R/B 3.3 19:07:34 10° S 19:13:02 76° WSW 19:18:26 10° NNW
Cosmos 1500 Rocket 3.7 19:10:44 20° SSE 19:13:28 50° E 19:17:40 10° NNE
Resurs 01 Rocket 2.1 19:10:48 10° S 19:15:11 61° W 19:19:35 10° NNW
Helios 1A 4.2 19:12:24 10° N 19:16:16 43° WNW 19:20:07 10° SW
NOSS 3-3 (C) 3.9 19:11:22 10° S 19:16:26 45° ESE 19:22:20 10° NE
MetOp-B 4.5 19:14:53 29° ESE 19:17:13 47° ENE 19:22:21 10° N
USA 290 4.3 19:14:39 10° NW 19:17:29 27° WSW 19:20:16 10° SSW
Meteor 2-10 4.1 19:11:55 10° S 19:17:30 82° E 19:23:15 10° NNE
Cosmos 2228 Rocket 4.3 19:13:47 10° NNE 19:17:38 26° ENE 19:17:55 26° ENE
GEOS 3 Rocket 4.3 19:13:39 15° SSE 19:17:51 49° SW 19:22:54 10° NW
Meteor 1-23 Rocket 4.3 19:13:03 10° N 19:18:39 60° ENE 19:21:41 27° SE
Cosmos 1743 Rocket 3.8 19:19:19 38° SE 19:20:10 43° E 19:24:18 10° NNE
USA 186 3.2 19:17:45 11° SSW 19:20:34 37° W 19:23:37 10° NNW
MOS 1-B 4.4 19:17:39 13° SSE 19:22:53 81° WSW 19:28:43 10° NNW
SPOT 5 2.9 19:22:14 37° ESE 19:23:39 52° ENE 19:27:59 10° N
Okean-O 2.7 19:23:05 39° SE 19:24:25 57° ENE 19:28:45 10° N
USA 267 4.0 19:21:01 15° ENE 19:26:03 45° N 19:32:11 10° WNW
Cosmos 2208 Rocket 3.9 19:21:31 10° S 19:26:42 66° ESE 19:32:01 10° NNE
Cosmos 1408 Rocket 3.5 19:24:02 10° S 19:28:24 89° WNW 19:32:51 10° N
NOSS 3-3 (A) 3.7 19:25:18 10° SSW 19:30:33 60° ESE 19:36:44 10° NE
ISS -3.9 19:27:23 10° WSW 19:30:43 80° SSE 19:30:43 80° SSE
MOS 1 4.2 19:31:48 30° SSE 19:34:42 76° ENE 19:40:24 10° NNW
Cosmos 2237 Rocket 2.3 19:29:40 10° SSW 19:35:18 79° WNW 19:40:58 10° NNE
CSL-04 Rocket 4.3 19:31:44 10° S 19:36:55 54° W 19:42:08 10° NNW
Aureole 3 Rocket 3.6 19:30:41 10° S 19:37:33 78° E 19:42:25 10° NNE
Cosmos 1607 4.3 19:32:20 10° S 19:38:20 42° ESE 19:44:21 10° NE
Cosmos 2297 4.0 19:40:24 10° NNW 19:45:53 49° NE 19:47:04 42° E
Meteor 1-11 Rocket 4.1 19:41:03 10° SSW 19:46:37 65° WNW 19:52:09 10° N
MOS 1 Rocket 3.5 19:45:39 49° SE 19:46:55 69° ENE 19:52:12 10° N
Spot 2 Rocket 3.9 19:50:59 43° ENE 19:51:14 44° ENE 19:56:00 10° N
Cosmos 158 Rocket 4.1 19:47:17 10° SSW 19:52:08 67° WNW 19:57:00 10° NNE
ATLAS CENTAUR R/B 1.5 19:49:00 10° SW 19:52:32 60° NW 19:54:53 21° NNE
NOSS 3-4 (A) 4.0 19:47:55 10° NW 19:54:31 61° NE 19:57:11 40° ESE
Cosmos 1805 Rocket 3.6 19:52:47 34° SSW 19:54:33 73° W 19:58:55 10° N
NOSS 3-4 (C) 4.0 19:48:02 10° NW 19:54:38 61° NE 19:57:17 40° ESE
SL-24 R/B 4.4 20:01:55 48° S 20:03:16 77° W 20:08:06 10° N
Cosmos 2369 Rocket 2.4 19:58:53 10° NNW 20:04:31 54° NE 20:05:11 51° E
Cosmos 1862 Rocket 4.0 20:02:54 10° N 20:06:32 51° NE 20:06:32 51° NE
Meteor 1-21 4.2 20:03:00 10° NNW 20:08:48 82° W 20:10:23 50° S
Sich 1 3.9 20:07:33 24° SW 20:09:49 47° WNW 20:14:00 10° N
Cosmos 1943 Rocket 3.6 20:06:22 10° NW 20:11:07 31° WSW 20:14:05 19° SSW
Cosmos 1707 Rocket 3.8 20:07:14 10° N 20:11:05 63° NNE 20:11:05 63° NNE
DELTA 2 DEB (DPAF) 4.1 20:07:40 10° N 20:11:47 71° WNW 20:11:47 71° WNW
Meteor 1-16 4.5 20:11:24 68° SSE 20:12:02 78° E 20:17:30 10° NNE
Terra 1.7 20:13:52 78° NE 20:13:52 78° NE 20:18:24 10° NNW
ERS-1 Rocket 2.8 20:14:03 77° S 20:14:26 87° WSW 20:19:30 10° NNW
ACS3 Solar Sail 2.8 20:09:36 16° SSW 20:14:34 46° W 20:20:43 10° NNW
Cosmos 1975 3.7 20:18:58 45° NNW 20:18:58 45° NNW 20:21:54 10° N
Cosmos 2026 Rocket 4.4 20:17:06 10° NNW 20:23:11 57° W 20:25:51 33° SSW
Cosmos 1092 Rocket 4.5 20:17:29 10° NNW 20:23:42 59° W 20:26:28 33° SSW
Ariane Rocket 3.1 20:24:21 66° NE 20:24:21 66° NE 20:29:01 10° N
Cosmos 2266 Rocket 4.3 20:19:09 10° N 20:25:06 49° ENE 20:25:06 49° ENE
Okean 3 4.5 20:29:53 10° NNW 20:32:44 42° NNW 20:32:44 42° NNW
SL-16 R/B 2.1 20:35:16 77° SW 20:35:40 84° WNW 20:41:24 10° NNE
Okean O Rocket 4.0 20:35:02 13° SW 20:37:13 18° W 20:40:16 10° NW
Cosmos 1634 Rocket 4.3 20:36:32 33° SSW 20:39:24 63° WNW 20:45:42 10° N
Cosmos 1656 Rocket 3.8 20:35:41 10° NNW 20:41:17 64° WSW 20:41:19 64° WSW
ATLAS 2AS CENTAUR R/B 4.5 20:39:10 10° NW 20:44:45 24° N 20:49:08 14° ENE
SL-08 ROCKET BODY 4.5 20:41:05 10° N 20:46:47 66° NE 20:46:47 66° NE
Cosmos 2263 4.3 20:46:47 10° NNW 20:51:55 72° NNW 20:51:55 72° NNW
Cosmos 2228 Rocket 4.5 20:51:40 10° NNW 20:55:20 36° WNW 20:55:20 36° WNW
SPOT 3 Rocket 4.1 21:00:55 54° WNW 21:00:55 54° WNW 21:05:13 10° NNW
USA 267 3.2 21:08:22 73° NE 21:08:36 74° NNE 21:15:07 10° NW
Cosmos 1655 Rocket 4.3 21:05:10 10° N 21:10:37 61° NNE 21:10:37 61° NNE
Cosmos 2344 4.5 21:06:33 10° NW 21:14:02 46° NNE 21:17:17 35° ENE
ATLAS CENTAUR R/B 4.3 21:28:44 10° WNW 21:35:08 - NNE 21:29:51 13° NW
Cosmos 2369 Rocket 3.9 21:43:25 10° NW 21:46:58 26° W 21:46:58 26° W
Terra 4.4 21:52:34 13° WNW 21:52:34 13° WNW 21:54:15 10° WNW
Cosmos 1980 Rocket 4.4 22:06:39 10° N 22:10:15 17° NE 22:10:31 17° NE
SL-16 R/B 4.4 22:17:00 12° W 22:20:40 20° NW 22:24:50 10° N
ATLAS 2AS CENTAUR R/B 3.5 22:30:42 10° NW 22:36:31 45° NNE 22:36:31 45° NNE
Cosmos 1697 Rocket 4.4 22:49:29 10° NNW 22:52:28 30° N 22:52:28 30° N
Cosmos 2344 4.2 23:20:44 10° NW 23:27:14 56° WNW 23:27:14 56° WNW
SL-16 R/B 4.5 23:31:40 10° N 23:35:37 19° NE 23:37:43 16° ENE
